Location: Newark
(35.6000°N, 117.0333°E)
Time: 16:40:45
(UTC+00:00)

ISS - Visible Passes

Search period start: 16 July 2019 00:00
Search period end: 26 July 2019 00:00
Orbit: 409 x 418 km, 51.6° (Epoch: 17 July)

Date Brightness Start Highest point End Pass type
(mag) Time Alt. Az. Time Alt. Az. Time Alt. Az.
16 Jul -3.7 13:18:15 10° SW 13:21:35 76° NW 13:24:55 10° NE visible
16 Jul -0.3 14:57:22 10° NW 14:58:45 12° NNW 15:00:09 10° N visible
16 Jul -1.8 19:49:30 10° NNW 19:52:32 32° NE 19:55:33 10° ESE visible
17 Jul -3.7 12:29:06 10° SSW 12:32:21 52° SE 12:35:37 10° ENE visible
17 Jul -0.8 14:06:55 10° WNW 14:09:15 17° NNW 14:11:35 10° NNE visible
17 Jul -1.0 19:00:34 10° NNW 19:03:08 20° NNE 19:05:41 10° E visible
17 Jul -3.3 20:36:48 10° WNW 20:39:55 38° SW 20:43:00 10° SSE visible
18 Jul -1.5 13:16:54 10° W 13:19:48 27° NW 13:22:43 10° NNE visible
18 Jul -0.4 18:11:50 10° N 18:13:39 14° NNE 18:15:28 10° ENE visible
18 Jul -3.9 19:47:23 10° NW 19:50:42 81° SW 19:53:59 10° SE visible
19 Jul -2.6 12:27:12 10° WSW 12:30:26 46° NW 12:33:40 10° NE visible
19 Jul -3.0 18:58:09 10° NW 19:01:25 50° NE 19:04:37 10° ESE visible
19 Jul -1.9 20:36:15 10° W 20:37:44 12° SW 20:39:12 10° SSW visible
20 Jul -0.4 13:16:29 10° WNW 13:18:12 13° NNW 13:19:55 10° N visible
21 Jul -0.8 12:26:09 10° W 12:28:40 19° NNW 12:31:11 10° NNE visible
23 Jul -0.2 12:26:29 10° NNW 12:27:05 10° NNW 12:27:41 10° NNW visible
